H1 CPF 2 NER 2024 1 7 9 007 01 glonass143 H2 2007501 9143 46805 2024 1 7 0 0 0 2024 1 10 23 45 0 900 1 1 0 0 0 1 H9 10 0 60316 0.00000 0 -9485479.640 -5504786.939 23034860.015 10 0 60316 900.00000 0 -8333517.909 -8080743.444 22717384.553 10 0 60316 1800.00000 0 -7395016.308 -10671785.904 21958908.162 10 0 60316 2700.00000 0 -6681665.183 -13209837.534 20774086.889 10 0 60316 3600.00000 0 -6192804.838 -15626878.789 19185854.207 10 0 60316 4500.00000 0 -5915615.604 -17857588.279 17224983.020 10 0 60316 5400.00000 0 -5825832.399 -19841885.714 14929495.197 10 0 60316 6300.00000 0 -5888953.522 -21527271.294 12343929.267 10 0 60316 7200.00000 0 -6061892.645 -22870864.044 9518479.820 10 0 60316 8100.00000 0 -6295004.078 -23841053.878 6508024.787 10 0 60316 9000.00000 0 -6534395.449 -24418698.110 3371059.239 10 0 60316 9900.00000 0 -6724429.502 -24597812.004 168556.484 10 0 60316 10800.00000 0 -6810308.481 -24385724.318 -3037221.081 10 0 60316 11700.00000 0 -6740630.805 -23802691.230 -6183937.689 10 0 60316 12600.00000 0 -6469810.756 -22880985.054 -9210402.095 10 0 60316 13500.00000 0 -5960257.645 -21663496.400 -12057763.172 10 0 60316 14400.00000 0 -5184221.076 -20201909.019 -14670659.260 10 0 60316 15300.00000 0 -4125223.161 -18554524.656 -16998298.249 10 0 60316 16200.00000 0 -2779016.098 -16783829.895 -18995447.076 10 0 60316 17100.00000 0 -1154023.672 -14953907.663 -20623311.241 10 0 60316 18000.00000 0 728752.893 -13127802.349 -21850287.350 10 0 60316 18900.00000 0 2836361.698 -11364949.101 -22652574.400 10 0 60316 19800.00000 0 5125034.216 -9718774.794 -23014632.400 10 0 60316 20700.00000 0 7541779.946 -8234570.669 -22929479.927 10 0 60316 21600.00000 0 10026375.876 -6947724.913 -22398825.362 10 0 60316 22500.00000 0 12513668.517 -5882388.158 -21433029.669 10 0 60316 23400.00000 0 14936093.177 -5050626.641 -20050901.714 10 0 60316 24300.00000 0 17226306.192 -4452097.235 -18279330.250 10 0 60316 25200.00000 0 19319821.036 -4074256.671 -16152759.680 10 0 60316 26100.00000 0 21157538.964 -3893094.962 -13712519.699 10 0 60316 27000.00000 0 22688069.173 -3874361.008 -11006021.678 10 0 60316 27900.00000 0 23869742.148 -3975227.762 -8085837.241 10 0 60316 28800.00000 0 24672232.540 -4146325.871 -5008676.867 10 0 60316 29700.00000 0 25077724.199 -4334059.224 -1834288.365 10 0 60316 30600.00000 0 25081569.115 -4483103.942 1375703.336 10 0 60316 31500.00000 0 24692413.179 -4538984.690 4558992.326 10 0 60316 32400.00000 0 23931784.013 -4450618.917 7653800.405 10 0 60316 33300.00000 0 22833158.654 -4172721.061 10600074.707 10 0 60316 34200.00000 0 21440550.602 -3667964.712 13340650.884 10 0 60316 35100.00000 0 19806675.793 -2908810.980 15822359.371 10 0 60316 36000.00000 0 17990774.482 -1878925.403 17997053.463 10 0 60316 36900.00000 0 16056180.237 -574123.008 19822539.605 10 0 60316 37800.00000 0 14067737.508 997199.070 21263392.333 10 0 60316 38700.00000 0 12089175.318 2814160.697 22291638.624 10 0 60316 39600.00000 0 10180546.175 4844026.647 22887298.849 10 0 60316 40500.00000 0 8395836.448 7043338.514 23038774.318 10 0 60316 41400.00000 0 6780847.091 9359504.895 22743074.090 10 0 60316 42300.00000 0 5371432.412 11732785.009 22005876.686 10 0 60316 43200.00000 0 4192169.613 14098584.600 20841425.243 10 0 60316 44100.00000 0 3255514.015 16389969.734 19272257.657 10 0 60316 45000.00000 0 2561474.669 18540294.818 17328776.250 10 0 60316 45900.00000 0 2097823.466 20485836.049 15048664.533 10 0 60316 46800.00000 0 1840828.482 22168320.879 12476161.540 10 0 60316 47700.00000 0 1756480.352 23537247.980 9661207.134 10 0 60316 48600.00000 0 1802159.581 24551900.553 6658474.355 10 0 60316 49500.00000 0 1928673.958 25182968.393 3526307.303 10 0 60316 50400.00000 0 2082579.425 25413710.264 325585.272 10 0 60316 51300.00000 0 2208685.496 25240607.399 -2881464.475 10 0 60316 52200.00000 0 2252638.298 24673480.328 -6032481.690 10 0 60316 53100.00000 0 2163470.877 23735063.939 -9066191.474 10 0 60316 54000.00000 0 1896011.686 22460058.646 -11923601.524 10 0 60316 54900.00000 0 1413048.201 20893697.663 -14549154.271 10 0 60316 55800.00000 0 687153.017 19089890.943 -16891810.867 10 0 60316 56700.00000 0 -297905.800 17109024.048 -18906045.582 10 0 60316 57600.00000 0 -1546230.642 15015504.669 -20552731.120 10 0 60316 58500.00000 0 -3049376.847 12875159.887 -21799897.727 10 0 60316 59400.00000 0 -4786470.235 10752593.247 -22623351.672 10 0 60316 60300.00000 0 -6724855.560 8708612.017 -23007141.524 10 0 60316 61200.00000 0 -8821249.496 6797831.786 -22943863.698 10 0 60316 62100.00000 0 -11023350.667 5066557.739 -22434801.853 10 0 60316 63000.00000 0 -13271840.115 3551030.154 -21489897.864 10 0 60316 63900.00000 0 -15502689.352 2276106.238 -20127555.217 10 0 60316 64800.00000 0 -17649680.223 1254432.079 -18374278.816 10 0 60316 65700.00000 0 -19647032.023 486137.891 -16264158.166 10 0 60316 66600.00000 0 -21432026.629 -40932.083 -13838203.889 10 0 60316 67500.00000 0 -22947522.451 -350466.113 -11143550.323 10 0 60316 68400.00000 0 -24144252.507 -476440.928 -8232539.471 10 0 60316 69300.00000 0 -24982810.772 -461440.618 -5161704.103 10 0 60316 70200.00000 0 -25435243.979 -354610.388 -1990669.665 10 0 60316 71100.00000 0 -25486182.420 -209332.395 1219003.548 10 0 60316 72000.00000 0 -25133462.644 -80722.553 4405015.312 10 0 60316 72900.00000 0 -24388216.209 -23054.707 7505534.083 10 0 60316 73800.00000 0 -23274420.993 -87221.522 10460395.712 10 0 60316 74700.00000 0 -21827934.111 -318339.837 13212268.834 10 0 60316 75600.00000 0 -20095047.080 -753602.010 15707764.408 10 0 60316 76500.00000 0 -18130623.727 -1420464.364 17898468.093 10 0 60316 77400.00000 0 -15995898.645 -2335249.619 19741875.727 10 0 60316 78300.00000 0 -13756027.861 -3502222.806 21202214.290 10 0 60316 79200.00000 0 -11477493.504 -4913180.345 22251132.950 10 0 60316 80100.00000 0 -9225470.097 -6547570.593 22868251.312 10 0 60316 81000.00000 0 -7061261.461 -8373142.040 23041554.653 10 0 60316 81900.00000 0 -5039914.142 -10347093.466 22767628.748 10 0 60316 82800.00000 0 -3208105.918 -12417679.406 22051729.721 10 0 60316 83700.00000 0 -1602396.447 -14526205.376 20907687.343 10 0 60316 84600.00000 0 -247912.188 -16609330.915 19357643.157 10 0 60316 85500.00000 0 842480.275 -18601585.429 17431627.835 10 0 60317 0.00000 0 1668478.549 -20437992.491 15166985.379 10 0 60317 900.00000 0 2242114.698 -22056694.461 12607653.276 10 0 60317 1800.00000 0 2587000.581 -23401465.373 9803314.944 10 0 60317 2700.00000 0 2737082.072 -24424010.087 6808436.381 10 0 60317 3600.00000 0 2734954.072 -25085950.422 3681208.375 10 0 60317 4500.00000 0 2629808.589 -25360415.412 482413.714 10 0 60317 5400.00000 0 2475103.290 -25233168.072 -2725758.094 10 0 60317 6300.00000 0 2326050.028 -24703220.721 -5880925.026 10 0 60317 7200.00000 0 2237030.658 -23782912.444 -8921731.312 10 0 60317 8100.00000 0 2259050.565 -22497445.100 -11789046.286 10 0 60317 9000.00000 0 2437338.822 -20883897.186 -14427119.281 10 0 60317 9900.00000 0 2809197.533 -18989756.966 -16784667.449 10 0 60317 10800.00000 0 3402192.305 -16871036.559 -18815874.985 10 0 60317 11700.00000 0 4232761.161 -14590046.200 -20481284.156 10 0 60317 12600.00000 0 5305301.408 -12212922.027 -21748560.897 10 0 60317 13500.00000 0 6611773.644 -9807010.838 -22593120.411 10 0 60317 14400.00000 0 8131840.290 -7438220.887 -22998601.075 10 0 60317 15300.00000 0 9833533.445 -5168448.972 -22957177.959 10 0 60317 16200.00000 0 11674424.727 -3053190.460 -22469710.399 10 0 60317 17100.00000 0 13603248.694 -1139431.025 -21545721.172 10 0 60317 18000.00000 0 15561912.497 536093.078 -20203207.996 10 0 60317 18900.00000 0 17487808.224 1948194.951 -18468291.155 10 0 60317 19800.00000 0 19316331.775 3084044.375 -16374704.106 10 0 60317 20700.00000 0 20983503.272 3943450.249 -13963136.856 10 0 60317 21600.00000 0 22428579.757 4538607.899 -11280444.747 10 0 60317 22500.00000 0 23596551.056 4893323.339 -8378737.828 10 0 60317 23400.00000 0 24440414.442 5041748.460 -5314368.438 10 0 60317 24300.00000 0 24923132.912 5026681.678 -2146836.664 10 0 60317 25200.00000 0 25019195.031 4897506.722 1062365.035 10 0 60317 26100.00000 0 24715710.950 4707857.490 4250945.398 10 0 60317 27000.00000 0 24012998.684 4513108.307 7357022.796 10 0 60317 27900.00000 0 22924636.011 4367796.225 10320324.914 10 0 60317 28800.00000 0 21476975.820 4323084.709 13083356.277 10 0 60317 29700.00000 0 19708145.103 4424376.206 15592511.034 10 0 60317 30600.00000 0 17666569.299 4709174.696 17799109.576 10 0 60317 31500.00000 0 15409083.409 5205288.703 19660339.226 10 0 60317 32400.00000 0 12998708.340 5929450.878 21140081.205 10 0 60317 33300.00000 0 10502184.610 6886412.817 22209608.395 10 0 60317 34200.00000 0 7987365.511 8068553.875 22848140.836 10 0 60317 35100.00000 0 5520577.379 9456021.333 23043248.664 10 0 60317 36000.00000 0 3164055.891 11017397.197 22791094.889 10 0 60317 36900.00000 0 973564.064 12710864.964 22096513.365 10 0 60317 37800.00000 0 -1003709.895 14485828.838 20972920.204 10 0 60317 38700.00000 0 -2730888.303 16284919.025 19442059.872 10 0 60317 39600.00000 0 -4182701.771 18046300.335 17533590.237 10 0 60317 40500.00000 0 -5346295.663 19706188.452 15284513.829 10 0 60317 41400.00000 0 -6221512.208 21201469.217 12738465.509 10 0 60317 42300.00000 0 -6820637.120 22472311.382 9944869.688 10 0 60317 43200.00000 0 -7167621.982 23464663.297 6957982.882 10 0 60317 44100.00000 0 -7296815.789 24132528.325 3835839.909 10 0 60317 45000.00000 0 -7251259.803 24439922.759 639124.220 10 0 60317 45900.00000 0 -7080618.497 24362433.178 -2570015.378 10 0 60317 46800.00000 0 -6838834.939 23888306.889 -5729178.100 10 0 60317 47700.00000 0 -6581610.734 23019028.777 -8776930.302 10 0 60317 48600.00000 0 -6363818.212 21769359.645 -11654005.874 10 0 60317 49500.00000 0 -6236955.402 20166833.867 -14304463.818 10 0 60317 50400.00000 0 -6246752.456 18250737.165 -16676779.856 10 0 60317 51300.00000 0 -6431031.648 16070607.171 -18724850.439 10 0 60317 52200.00000 0 -6817912.137 13684319.542 -20408889.472 10 0 60317 53100.00000 0 -7424435.954 11155839.701 -21696200.383 10 0 60317 54000.00000 0 -8255673.688 8552734.078 -22561808.828 10 0 60317 54900.00000 0 -9304348.021 5943544.526 -22988944.199 10 0 60317 55800.00000 0 -10550991.367 3395135.097 -22969361.067 10 0 60317 56700.00000 0 -11964631.404 970121.092 -22503494.884 10 0 60317 57600.00000 0 -13503976.152 -1275513.314 -21600449.325 10 0 60317 58500.00000 0 -15119049.280 -3294510.672 -20277815.847 10 0 60317 59400.00000 0 -16753207.527 -5050063.002 -18561329.145 10 0 60317 60300.00000 0 -18345456.057 -6517091.265 -16484365.188 10 0 60317 61200.00000 0 -19832965.061 -7683029.584 -14087291.529 10 0 60317 62100.00000 0 -21153682.351 -8548083.034 -11416682.340 10 0 60317 63000.00000 0 -22248932.620 -9124949.721 -8524413.270 10 0 60317 63900.00000 0 -23065894.356 -9438020.325 -5466653.610 10 0 60317 64800.00000 0 -23559850.513 -9522090.107 -2302775.328 10 0 60317 65700.00000 0 -23696118.334 -9420638.860 905799.807 10 0 60317 66600.00000 0 -23451577.188 -9183752.369 4096792.413 10 0 60317 67500.00000 0 -22815730.090 -8865773.937 7208273.715 10 0 60317 68400.00000 0 -21791254.122 -8522785.834 10179866.174 10 0 60317 69300.00000 0 -20394016.422 -8210027.499 12953913.090 10 0 60317 70200.00000 0 -18652554.744 -7979359.894 15476594.543 10 0 60317 71100.00000 0 -16607043.944 -7876883.224 17698968.211 10 0 60317 72000.00000 0 -14307791.116 -7940808.713 19577915.168 10 0 60317 72900.00000 0 -11813321.623 -8199674.281 21076972.811 10 0 60317 73800.00000 0 -9188135.060 -8670979.488 22167039.272 10 0 60317 74700.00000 0 -6500223.803 -9360297.572 22826936.170 10 0 60317 75600.00000 0 -3818456.415 -10260902.414 23043819.223 10 0 60317 76500.00000 0 -1209933.652 -11353926.895 22813429.028 10 0 60317 77400.00000 0 1262574.055 -12609046.930 22140177.169 10 0 60317 78300.00000 0 3543002.178 -13985663.580 21037065.769 10 0 60317 79200.00000 0 5584082.949 -15434534.838 19525441.582 10 0 60317 80100.00000 0 7349065.292 -16899789.787 17634588.749 10 0 60317 81000.00000 0 8812992.997 -18321241.590 15401167.302 10 0 60317 81900.00000 0 9963488.464 -19636903.023 12868507.527 10 0 60317 82800.00000 0 10801009.872 -20785599.304 10085773.142 10 0 60317 83700.00000 0 11338571.652 -21709568.513 7107008.999 10 0 60317 84600.00000 0 11600940.625 -22356939.971 3990091.487 10 0 60317 85500.00000 0 11623342.335 -22683985.700 795602.041 10 0 60318 0.00000 0 11449732.915 -22657049.380 -2414353.790 10 0 60318 900.00000 0 11130710.139 -22254070.530 -5577359.973 10 0 60318 1800.00000 0 10721153.188 -21465638.847 -8631907.668 10 0 60318 2700.00000 0 10277691.550 -20295533.333 -11518598.260 10 0 60318 3600.00000 0 9856111.326 -18760722.623 -14181303.286 10 0 60318 4500.00000 0 9508809.472 -16890825.923 -16568259.775 10 0 60318 5400.00000 0 9282404.469 -14727056.614 -18633078.977 10 0 60318 6300.00000 0 9215605.022 -12320692.477 -20335648.724 10 0 60318 7200.00000 0 9337427.295 -9731136.262 -21642911.900 10 0 60318 8100.00000 0 9665836.243 -7023647.413 -22529506.197 10 0 60318 9000.00000 0 10206868.527 -4266839.286 -22978253.185 10 0 60318 9900.00000 0 10954274.070 -1530045.802 -22980487.677 10 0 60318 10800.00000 0 11889691.482 1119333.373 -22536221.562 10 0 60318 11700.00000 0 12983350.061 3618399.377 -21654139.334 10 0 60318 12600.00000 0 14195269.022 5911126.529 -20351425.739 10 0 60318 13500.00000 0 15476903.773 7950442.904 -18653429.078 10 0 60318 14400.00000 0 16773170.286 9699933.704 -16593166.687 10 0 60318 15300.00000 0 18024762.732 11135097.774 -14210682.167 10 0 60318 16200.00000 0 19170667.208 12244106.243 -11552266.686 10 0 60318 17100.00000 0 20150766.041 13028033.089 -8669559.324 10 0 60318 18000.00000 0 20908423.216 13500549.411 -5618543.842 10 0 60318 18900.00000 0 21392942.202 13687095.681 -2458461.353 10 0 60318 19800.00000 0 21561792.660 13623568.071 749339.966 10 0 60318 20700.00000 0 21382512.172 13354575.315 3942595.607 10 0 60318 21600.00000 0 20834202.735 12931340.537 7059332.632 10 0 60318 22500.00000 0 19908558.770 12409337.312 10039071.165 10 0 60318 23400.00000 0 18610383.022 11845760.267 12823996.011 10 0 60318 24300.00000 0 16957568.234 11296937.297 15360075.719 10 0 60318 25200.00000 0 14980544.716 10815792.773 17598107.574 10 0 60318 26100.00000 0 12721216.266 10449468.736 19494668.508 10 0 60318 27000.00000 0 10231428.106 10237204.313 21012953.973 10 0 60318 27900.00000 0 7571029.783 10208562.582 22123489.003 10 0 60318 28800.00000 0 4805612.753 10382079.552 22804698.189 10 0 60318 29700.00000 0 2004015.684 10764392.196 23043323.943 10 0 60318 30600.00000 0 -764300.003 11349882.503 22834685.222 10 0 60318 31500.00000 0 -3431896.417 12120853.050 22182771.723 10 0 60318 32400.00000 0 -5935918.509 13048227.396 21100171.545 10 0 60318 33300.00000 0 -8220461.087 14092746.767 19607833.253 10 0 60318 34200.00000 0 -10238645.986 15206613.624 17734666.325 10 0 60318 35100.00000 0 -11954323.705 16335513.950 15516986.952 10 0 60318 36000.00000 0 -13343329.254 17420933.923 12997819.124 10 0 60318 36900.00000 0 -14394240.283 18402673.980 10226063.844 10 0 60318 37800.00000 0 -15108606.345 19221454.604 7255552.034 10 0 60318 38700.00000 0 -15500640.209 19821503.890 4143999.201 10 0 60318 39600.00000 0 -15596384.762 20153017.298 951882.152 10 0 60318 40500.00000 0 -15432391.284 20174385.097 -2258740.118 10 0 60318 41400.00000 0 -15053965.545 19854092.577 -5425437.978 10 0 60318 42300.00000 0 -14513056.636 19172211.776 -8486630.830 10 0 60318 43200.00000 0 -13865878.630 18121420.759 -11382790.407 10 0 60318 44100.00000 0 -13170366.499 16707506.427 -14057603.569 10 0 60318 45000.00000 0 -12483574.693 14949328.794 -16459071.303 10 0 60318 45900.00000 0 -11859129.043 12878247.420 -18540522.123 10 0 60318 46800.00000 0 -11344840.206 10537033.396 -20261520.026 10 0 60318 47700.00000 0 -10980579.765 7978311.921 -21588649.322 10 0 60318 48600.00000 0 -10796508.746 5262600.118 -22496161.422 10 0 60318 49500.00000 0 -10811733.228 2456021.504 -22966471.440 10 0 60318 50400.00000 0 -11033443.517 -372208.044 -22990495.448 10 0 60318 51300.00000 0 -11456572.918 -3152418.755 -22567822.400 10 0 60318 52200.00000 0 -12063990.202 -5817140.769 -21706717.824 10 0 60318 53100.00000 0 -12827217.467 -8303663.701 -20423959.529 10 0 60318 54000.00000 0 -13707643.042 -10556396.465 -18744508.738 10 0 60318 54900.00000 0 -14658178.315 -12528930.253 -16701023.047 10 0 60318 55800.00000 0 -15625288.750 -14185719.912 -14333220.607 10 0 60318 56700.00000 0 -16551313.633 -15503314.886 -11687107.751 10 0 60318 57600.00000 0 -17376976.872 -16471089.666 -8814084.882 10 0 60318 58500.00000 0 -18043983.091 -17091444.528 -5769947.922 10 0 60318 59400.00000 0 -18497589.563 -17379469.484 -2613804.655 10 0 60318 60300.00000 0 -18689045.462 -17362086.843 593072.952 10 0 60318 61200.00000 0 -18577795.399 -17076709.573 3788437.988 10 0 60318 62100.00000 0 -18133354.121 -16569472.956 6910276.174 10 0 60318 63000.00000 0 -17336772.999 -15893114.842 9898008.179 10 0 60318 63900.00000 0 -16181636.115 -15104594.477 12693663.211 10 0 60318 64800.00000 0 -14674543.495 -14262550.644 15243001.148 10 0 60318 65700.00000 0 -12835060.443 -13424706.466 17496561.609 10 0 60318 66600.00000 0 -10695134.311 -12645330.173 19410619.909 10 0 60318 67500.00000 0 -8298002.084 -11972858.602 20948031.803 10 0 60318 68400.00000 0 -5696633.335 -11447783.212 22078951.142 10 0 60318 69300.00000 0 -2951772.264 -11100887.223 22781407.035 10 0 60318 70200.00000 0 -129659.100 -10951907.796 23041729.757 10 0 60318 71100.00000 0 2700475.718 -11008679.362 22854817.409 10 0 60318 72000.00000 0 5469041.670 -11266794.163 22224238.234 10 0 60318 72900.00000 0 8108734.564 -11709794.542 21162166.388 10 0 60318 73800.00000 0 10557090.375 -12309889.314 19689151.991 10 0 60318 74700.00000 0 12758841.252 -13029164.678 17833729.272 10 0 60318 75600.00000 0 14667976.426 -13821239.332 15631869.639 10 0 60318 76500.00000 0 16249422.790 -14633294.681 13126289.464 10 0 60318 77400.00000 0 17480275.440 -15408395.011 10365625.311 10 0 60318 78300.00000 0 18350527.175 -16088000.000 7403492.048 10 0 60318 79200.00000 0 18863266.750 -16614563.453 4297441.783 10 0 60318 80100.00000 0 19034338.006 -16934108.149 1107843.853 10 0 60318 81000.00000 0 18891474.698 -16998667.344 -2103292.104 10 0 60318 81900.00000 0 18472948.077 -16768488.887 -5273526.677 10 0 60318 82800.00000 0 17825784.937 -16213907.734 -8341210.493 10 0 60318 83700.00000 0 17003632.141 -15316806.655 -11246688.855 10 0 60318 84600.00000 0 16064358.581 -14071602.313 -13933467.038 10 0 60318 85500.00000 0 15067496.650 -12485714.047 -16349312.886 10 0 60319 0.00000 0 14071632.002 -10579494.806 -18447274.674 10 0 60319 900.00000 0 13131851.770 -8385625.157 -20186595.312 10 0 60319 1800.00000 0 12297360.481 -5947997.602 -21533502.370 10 0 60319 2700.00000 0 11609362.502 -3320133.842 -22461862.643 10 0 60319 3600.00000 0 11099301.324 -563202.915 -22953686.035 10 0 60319 4500.00000 0 10787528.964 2256278.629 -22999470.707 10 0 60319 5400.00000 0 10682461.036 5068969.250 -22598383.085 10 0 60319 6300.00000 0 10780252.445 7805343.296 -21758269.713 10 0 60319 7200.00000 0 11065006.769 10398341.146 -20495501.058 10 0 60319 8100.00000 0 11509509.933 12785919.236 -18834650.497 10 0 60319 9000.00000 0 12076456.876 14913394.806 -16808014.749 10 0 60319 9900.00000 0 12720119.137 16735488.708 -14454985.038 10 0 60319 10800.00000 0 13388382.857 18217982.255 -11821281.039 10 0 60319 11700.00000 0 14025071.075 19338920.048 -8958062.336 10 0 60319 12600.00000 0 14572452.203 20089309.689 -5920934.556 10 0 60319 13500.00000 0 14973828.666 20473290.258 -2768869.448 10 0 60319 14400.00000 0 15176096.287 20507763.632 436940.120 10 0 60319 15300.00000 0 15132166.123 20221505.223 3634267.823 10 0 60319 16200.00000 0 14803146.267 19653792.464 6761061.039 10 0 60319 17100.00000 0 14160191.184 18852609.580 9756643.909 10 0 60319 18000.00000 0 13185940.128 17872504.840 12562892.826 10 0 60319 18900.00000 0 11875483.475 16772190.905 15125361.585 10 0 60319 19800.00000 0 10236815.560 15611989.483 17394334.527 10 0 60319 20700.00000 0 8290754.119 14451227.792 19325787.517 10 0 60319 21600.00000 0 6070328.654 13345696.119 20882238.538 10 0 60319 22500.00000 0 3619662.068 12345272.962 22033471.942 10 0 60319 23400.00000 0 992390.980 11491817.076 22757122.771 10 0 60319 24300.00000 0 -1750310.852 10817414.436 23039110.260 10 0 60319 25200.00000 0 -4542025.167 10343053.281 22873912.411 10 0 60319 26100.00000 0 -7313603.922 10077782.533 22264676.366 10 0 60319 27000.00000 0 -9995802.912 10018388.737 21223162.260 10 0 60319 27900.00000 0 -12521926.002 10149605.076 19769521.228 10 0 60319 28800.00000 0 -14830371.014 10444843.854 17931911.248 10 0 60319 29700.00000 0 -16866972.098 10867421.847 15745957.509 10 0 60319 30600.00000 0 -18587041.612 11372227.261 13254066.954 10 0 60319 31500.00000 0 -19957026.667 11907758.224 10504609.599 10 0 60319 32400.00000 0 -20955711.396 12418446.950 7550981.912 10 0 60319 33300.00000 0 -21574914.829 12847171.293 4450570.111 10 0 60319 34200.00000 0 -21819655.255 13137847.199 1263633.481 10 0 60319 35100.00000 0 -21707774.483 13237991.809 -1947870.349 10 0 60319 36000.00000 0 -21269038.162 13101147.948 -5121494.870 10 0 60319 36900.00000 0 -20543750.541 12689066.412 -8195524.640 10 0 60319 37800.00000 0 -19580942.708 11973552.613 -11110181.228 10 0 60319 38700.00000 0 -18436211.370 10937898.368 -13808790.969 10 0 60319 39600.00000 0 -17169300.062 9577837.200 -16238891.100 10 0 60319 40500.00000 0 -15841525.397 7901981.755 -18353252.362 10 0 60319 41400.00000 0 -14513157.341 5931723.885 -20110797.939 10 0 60319 42300.00000 0 -13240864.156 3700600.636 -21477400.904 10 0 60319 43200.00000 0 -12075329.610 1253151.872 -22426544.943 10 0 60319 44100.00000 0 -11059142.436 -1356683.490 -22939835.922 10 0 60319 45000.00000 0 -10225046.325 -4067566.369 -23007354.881 10 0 60319 45900.00000 0 -9594623.282 -6813068.878 -22627846.142 10 0 60319 46800.00000 0 -9177464.842 -9524202.622 -21808737.319 10 0 60319 47700.00000 0 -8970865.050 -12132059.373 -20565991.203 10 0 60319 48600.00000 0 -8960047.187 -14570455.016 -18923792.625 10 0 60319 49500.00000 0 -9118913.842 -16778467.543 -16914076.396 10 0 60319 50400.00000 0 -9411287.977 -18702764.188 -14575905.473 10 0 60319 51300.00000 0 -9792592.066 -20299621.632 -11954711.284 10 0 60319 52200.00000 0 -10211893.999 -21536555.872 -9101410.798 10 0 60319 53100.00000 0 -10614232.969 -22393494.574 -6071417.402 10 0 60319 54000.00000 0 -10943126.828 -22863443.815 -2923564.730 10 0 60319 54900.00000 0 -11143154.662 -22952622.238 281035.640 10 0 60319 55800.00000 0 -11162505.177 -22680057.858 3480180.283 10 0 60319 56700.00000 0 -10955382.890 -22076665.340 6611780.661 10 0 60319 57600.00000 0 -10484170.125 -21183843.228 9615066.923 10 0 60319 58500.00000 0 -9721253.105 -20051650.693 12431765.274 10 0 60319 59400.00000 0 -8650434.561 -18736640.876 15007226.098 10 0 60319 60300.00000 0 -7267872.659 -17299442.084 17291481.099 10 0 60319 61200.00000 0 -5582505.910 -15802188.466 19240209.215 10 0 60319 62100.00000 0 -3615945.172 -14305907.833 20815593.011 10 0 60319 63000.00000 0 -1401836.047 -12867975.802 21987049.438 10 0 60319 63900.00000 0 1015283.028 -11539742.506 22731821.258 10 0 60319 64800.00000 0 3581580.775 -10364430.702 23035418.125 10 0 60319 65700.00000 0 6235926.042 -9375392.671 22891899.051 10 0 60319 66600.00000 0 8912192.222 -8594798.365 22303990.824 10 0 60319 67500.00000 0 11541778.673 -8032809.248 21283039.961 10 0 60319 68400.00000 0 14056245.572 -7687272.090 19848798.666 10 0 60319 69300.00000 0 16389953.571 -7543945.318 18029048.370 10 0 60319 70200.00000 0 18482599.228 -7577248.297 15859067.377 10 0 60319 71100.00000 0 20281541.097 -7751501.958 13380952.152 10 0 60319 72000.00000 0 21743819.730 -8022608.494 10642804.685 10 0 60319 72900.00000 0 22837787.339 -8340099.182 7697801.149 10 0 60319 73800.00000 0 23544278.898 -8649463.636 4603159.550 10 0 60319 74700.00000 0 23857275.585 -8894661.630 1419026.408 10 0 60319 75600.00000 0 23784032.697 -9020710.638 -1792695.673 10 0 60319 76500.00000 0 23344666.793 -8976238.749 -4969556.314 10 0 60319 77400.00000 0 22571219.642 -8715893.912 -8049777.318 10 0 60319 78300.00000 0 21506238.791 -8202506.431 -10973459.810 10 0 60319 79200.00000 0 20200935.027 -7408912.055 -13683754.350 10 0 60319 80100.00000 0 18712994.900 -6319357.419 -16127970.544 10 0 60319 81000.00000 0 17104140.974 -4930427.361 -18258604.149 10 0 60319 81900.00000 0 15437542.942 -3251453.917 -20034261.459 10 0 60319 82800.00000 0 13775188.776 -1304388.761 -21420463.005 10 0 60319 83700.00000 0 12175326.464 876856.492 -22390311.192 10 0 60319 84600.00000 0 10690083.527 3247575.382 -22925009.325 10 0 60319 85500.00000 0 9363363.747 5753889.156 -23014222.437 99